#timestamp,LO_Frequency,Hit,StdDev 
1583902815.6,286046993.9,N
1583902835.5,286046994.8,N
1583902855.3,286046992.1,Y
1583902875.2,286046997.1,P
1583902895.9,286046997.6,P
1583902915.7,286046994.9,P
1583902935.6,286046995.4,Y
1583902955.4,286046998.3,P
1583902975.3,286046999.0,N
1583902995.1,286046998.7,N
1583902996.0,286046998.7,N
1583903015.8,286046999.1,N
1583903035.7,286046997.2,Y
1583903055.5,286046997.8,P
1583903075.4,286046996.9,P
1583903095.2,286046999.1,N
1583903115.0,286046996.9,Y
1583903115.9,286046996.9,P
1583903135.8,286046998.8,N
1583903155.6,286046999.3,N
1583903175.5,286046998.3,N
1583903195.3,286046998.8,N
1583903215.1,286047000.8,N
1583903235.9,286046998.2,N
1583903255.7,286046999.8,N
1583903275.5,286047000.1,N
1583903295.4,286047001.1,N
1583903315.2,286046999.3,N
1583903335.1,286046999.5,N
1583903336.0,286046999.5,N
1583903355.8,286046999.0,N
1583903375.6,286046999.0,N
1583903395.5,286046996.7,Y
1583903415.3,286046998.3,P
1583903435.2,286046999.0,N
1583903455.9,286046998.1,P
1583903475.7,286046999.2,N
1583903495.6,286047001.1,N
1583903515.4,286046998.6,N
1583903535.3,286046999.2,N
1583903555.1,286046996.9,Y
1583903556.0,286046996.9,P
1583903575.8,286047000.8,N
1583903595.7,286046998.1,N
1583903615.5,286046999.9,N
1583903635.4,286047001.2,N
1583903655.2,286047000.8,N
1583903675.0,286046998.1,N
1583903675.9,286046998.1,N
1583903695.8,286046998.1,N
1583903715.6,286047000.4,N
1583903735.4,286047001.0,N
1583903755.3,286046999.5,N
1583903775.1,286046997.5,N
1583903795.9,286046999.2,N
1583903815.7,286046998.8,N
1583903835.5,286047000.8,N
1583903855.4,286047000.9,N
1583903875.2,286047001.4,N
1583903895.0,286047002.3,N
1583903896.0,286047002.3,N
1583903915.8,286047000.2,N
1583903935.6,286047002.6,N
1583903955.5,286047002.0,N
1583903975.3,286047000.5,N
1583903995.1,286047000.9,N
1583904015.9,286047002.3,N
1583904035.7,286047004.2,N
1583904055.6,286047004.3,N
1583904075.4,286047004.4,N
1583904095.2,286047001.8,N
1583904115.1,286047004.3,N
1583904116.0,286047004.3,N
1583904135.8,286047003.4,N
1583904155.7,286047003.8,N
1583904175.5,286047005.9,N
1583904195.3,286047003.0,N
1583904215.2,286047003.2,N
1583904235.0,286047004.2,N
1583904235.9,286047004.2,N
1583904255.7,286047001.8,N
1583904275.6,286047001.4,N
1583904295.4,286047001.9,N
1583904315.3,286047002.8,N
1583904335.1,286047001.7,N
1583904336.0,286047001.7,N
1583904355.8,286047001.9,N
1583904375.7,286047001.8,N
1583904395.5,286047004.4,Y
1583904415.4,286047000.9,P
1583904435.2,286047004.2,P
1583904455.0,286047002.3,N
1583904455.9,286047002.3,N
1583904475.8,286047001.8,N
1583904495.6,286047004.9,Y
1583904515.5,286047001.3,P
1583904535.3,286047000.5,N
1583904555.1,286046998.6,N
1583904575.9,286046998.3,N
1583904595.7,286046998.8,N
1583904615.5,286046999.2,N
1583904635.4,286046999.4,N
1583904655.2,286046997.2,N
1583904675.1,286046997.6,N
1583904676.0,286046997.6,N
1583904695.8,286047000.4,N
1583904715.6,286046999.4,N
1583904735.5,286046998.7,N
1583904755.3,286047000.7,N
1583904775.1,286047000.8,N
1583904795.9,286047000.3,N
1583904815.7,286046998.7,N
1583904835.6,286046998.4,N
1583904855.4,286047000.5,N
1583904875.2,286047002.3,N
1583904895.1,286047002.4,N
1583904896.0,286047002.4,N
1583904915.8,286047001.2,N
1583904935.7,286047000.4,N
1583904955.5,286047002.5,N
1583904975.3,286047002.8,N
1583904995.2,286047000.3,N
1583905015.0,286047001.3,N
1583905015.9,286047001.3,N
1583905035.8,286047001.7,N
1583905055.6,286047005.5,Y
1583905075.4,286047005.9,P
1583905095.3,286047003.4,N
1583905115.1,286047003.6,N
1583905135.9,286047003.4,N
1583905155.7,286047001.3,N
1583905175.5,286047001.6,N
1583905195.4,286047002.4,N
1583905215.2,286047002.5,N
1583905235.1,286047003.8,N
1583905236.0,286047003.8,N
1583905255.8,286047001.8,N
1583905275.6,286047005.7,Y
1583905295.5,286047002.4,P
1583905315.3,286046999.8,N
1583905335.2,286047001.8,N
1583905355.9,286047000.3,N
1583905375.7,286046999.3,N
1583905395.6,286046998.4,N
1583905415.4,286046999.8,N
1583905435.3,286047000.4,N
1583905455.1,286046999.0,N
1583905456.0,286046999.0,N
1583905475.8,286046996.5,N
1583905495.7,286046998.6,N
1583905515.5,286046999.8,N
1583905535.3,286047002.0,N
1583905555.2,286047002.3,N
1583905575.0,286047000.1,N
1583905575.9,286047000.1,N
1583905595.8,286046998.3,N
1583905615.6,286046998.8,N
1583905635.4,286046999.5,N
1583905655.3,286046998.7,N
1583905675.1,286046998.1,N
1583905695.9,286047001.0,N
1583905715.7,286046999.8,N
1583905735.5,286047002.5,N
1583905755.4,286047001.7,N
1583905775.2,286047004.1,N
1583905795.0,286047002.3,N
1583905795.9,286047002.3,N
1583905815.8,286047004.3,N
1583905835.6,286047004.0,N
1583905855.5,286047004.2,N
1583905875.3,286047002.3,N
1583905895.1,286047002.6,N
1583905915.9,286047000.4,N
1583905935.7,286047000.7,N
1583905955.6,286047000.7,N
1583905975.4,286047002.3,N
1583905995.2,286047002.6,N
1583906015.1,286047000.1,N
1583906016.0,286047000.1,N
1583906035.8,286047000.6,N
1583906055.6,286047002.4,N
1583906075.5,286047001.4,N
1583906095.3,286047002.1,N
1583906115.2,286047002.4,N
1583906135.9,286047000.6,N
1583906155.7,286047000.9,N
1583906175.6,286046997.4,N
1583906195.4,286047001.2,N
1583906215.3,286047001.9,N
1583906235.1,286047001.8,N
1583906236.0,286047001.8,N
1583906255.8,286047001.5,N
1583906275.7,286047001.7,N
1583906295.5,286047001.6,N
1583906315.3,286047002.6,N
1583906335.2,286047002.1,N
1583906355.0,286047000.4,N
1583906355.9,286047000.4,N
1583906375.8,286047000.5,N
1583906395.6,286047000.6,N
